Shelton, WA
on Friday, February 8, 2013

Friday
Previous Day Next Day
Daily Summary
 ActualAverage (KOLM)Record (KOLM)
Temperature
Mean Temperature °F 41°F  
Max Temperature 44°F 49°F 69°F (1963)
Min Temperature 24°F 33°F 9°F (1989)
Degree Days
Heating Degree Days 31 24  
Month to date heating degree days 193  
Since 1 July heating degree days 3244  
Cooling Degree Days 0 0  
Month to date cooling degree days 0  
Year to date cooling degree days 0  
Moisture
Dew Point 30°F   
Average Humidity 91    
Maximum Humidity 100    
Minimum Humidity 65    
Precipitation
Precipitation 0.00 in 0.20 in 2.75 in (1996)
Month to date precipitation 1.63  
Year to date precipitation 9.47  
Wind
Wind Speed 0 mph   
Max Wind Speed 7 mph   
Max Gust Speed mph   
Visibility 9 miles   
Events     

Key: T is trace of precipitation, MM is missing value
Source: NWS Daily Summary
Time(PST)TemperatureDew PointHumidity Pressure Visibility Wind DirectionWind SpeedGust SpeedPrecipitationEvents Conditions
12:43 AM 26.6°F 26.6°F 100% 30.18 in 8.0 miles Calm Calm - N/A   Partly Cloudy
12:53 AM 27.0°F 26.1°F 96% 30.19 in 10.0 miles Calm Calm - N/A   Partly Cloudy
1:25 AM 26.6°F 26.6°F 100% 30.18 in 10.0 miles Calm Calm - N/A   Mostly Cloudy
1:36 AM 26.6°F 26.6°F 100% 30.19 in 9.0 miles Calm Calm - N/A   Scattered Clouds
1:48 AM 24.8°F 24.8°F 100% 30.19 in 4.0 miles Calm Calm - N/A   Mostly Cloudy
1:53 AM 28.0°F 26.1°F 92% 30.21 in 5.0 miles Calm Calm - N/A   Mostly Cloudy
2:10 AM 26.6°F 26.6°F 100% 30.20 in 10.0 miles Calm Calm - N/A   Scattered Clouds
2:53 AM 27.0°F 27.0°F 100% 30.22 in 10.0 miles Calm Calm - N/A   Clear
3:29 AM 24.8°F 24.8°F 100% 30.20 in 5.0 miles Calm Calm - N/A   Partly Cloudy
3:53 AM 26.6°F 24.8°F 93% 30.21 in 7.0 miles Calm Calm - N/A   Clear
4:53 AM 26.1°F 25.0°F 96% 30.25 in 10.0 miles Calm Calm - N/A   Scattered Clouds
5:07 AM 26.6°F 24.8°F 93% 30.23 in 10.0 miles Calm Calm - N/A   Mostly Cloudy
5:33 AM 26.6°F 24.8°F 93% 30.23 in 10.0 miles Calm Calm - N/A   Scattered Clouds
5:53 AM 24.1°F 24.1°F 100% 30.26 in 10.0 miles Calm Calm - N/A   Clear
6:53 AM 26.1°F 25.0°F 96% 30.27 in 10.0 miles Calm Calm - N/A   Clear
7:53 AM 27.0°F 26.1°F 96% 30.29 in 10.0 miles Calm Calm - N/A   Clear
8:53 AM 30.0°F 30.0°F 100% 30.30 in 10.0 miles Calm Calm - N/A   Clear
9:53 AM 35.1°F 35.1°F 100% 30.30 in 10.0 miles Calm Calm - N/A   Clear
10:48 AM 41.0°F 37.4°F 87% 30.29 in 10.0 miles Calm Calm - N/A   Mostly Cloudy
10:53 AM 39.9°F 36.0°F 86% 30.31 in 10.0 miles Calm Calm - N/A   Mostly Cloudy
11:53 AM 42.1°F 36.0°F 79% 30.30 in 10.0 miles Calm Calm - N/A   Overcast
12:26 PM 42.8°F 35.6°F 76% 30.28 in 10.0 miles West 3.5 mph - N/A   Overcast
12:53 PM 42.1°F 35.1°F 76% 30.29 in 10.0 miles West 5.8 mph - N/A   Overcast
1:53 PM 44.1°F 33.1°F 65% 30.28 in 10.0 miles WSW 6.9 mph - N/A   Overcast
2:53 PM 43.0°F 32.0°F 65% 30.28 in 10.0 miles Calm Calm - N/A   Overcast
3:53 PM 44.1°F 33.1°F 65% 30.29 in 10.0 miles Calm Calm - N/A   Overcast
4:53 PM 43.0°F 34.0°F 71% 30.28 in 10.0 miles SSW 3.5 mph - N/A   Overcast
5:53 PM 37.0°F 33.1°F 86% 30.28 in 10.0 miles Calm Calm - N/A   Clear
6:53 PM 36.0°F 34.0°F 93% 30.28 in 10.0 miles Calm Calm - N/A   Clear
7:53 PM 33.1°F 32.0°F 96% 30.29 in 10.0 miles Calm Calm - N/A   Clear
8:53 PM 34.0°F 33.1°F 96% 30.29 in 10.0 miles Calm Calm - N/A   Mostly Cloudy
9:53 PM 32.0°F 30.9°F 96% 30.30 in 10.0 miles Calm Calm - N/A   Clear
10:53 PM 30.9°F 30.9°F 100% 30.27 in 10.0 miles Calm Calm - N/A   Clear
11:53 PM 30.9°F 30.0°F 96% 30.28 in 10.0 miles Calm Calm - N/A   Clear
Moon Phase
Feb. 08 Feb. 10 Feb. 17 Feb. 25 Mar. 04
Sunrise:07:27 AM (PST) Moon Rise:06:03 AM (PST)2/8
Sunset:05:26 PM (PST) Moon Set:04:04 PM (PST)2/8

Copyright © 2014 The Weather Underground, Inc.